Location: Unspecified
(0.0000°N, 0.0000°E)
Time: 09:03:54
(UTC+02:00)

ARIANE DEB (SPELDA) - Visible Passes

Search period start: 25 October 2014 00:00
Search period end: 03 November 2014 23:00
Orbit: 333 x 33280 km, 3.4° (Epoch: 22 October)

Date Brightness Start Highest point End Pass type
(mag) Time Alt. Az. Time Alt. Az. Time Alt. Az.
26 Oct 5.6 04:58:10 34° W 05:05:55 81° S 14:00:01 10° E visible
27 Oct 5.0 10:42:13 10° W 19:31:41 78° N 19:37:05 17° E visible
28 Oct 6.3 05:45:34 14° W 06:01:40 83° S 14:52:47 10° E visible
29 Oct 3.7 11:44:18 10° W 20:22:38 77° N 17:01:38 10° W visible
31 Oct 6.7 02:03:31 23° E 02:03:31 23° E 02:12:51 10° E visible
31 Oct 10.3 06:46:55 10° E 09:04:13 20° E 10:18:12 10° E visible
31 Oct 4.2 20:59:42 10° W 21:11:16 51° WNW 21:11:16 51° WNW visible
02 Nov 5.8 02:50:20 49° ESE 02:50:20 49° ESE 11:28:53 10° E visible
02 Nov 5.9 21:56:01 10° W 21:58:00 16° W 21:58:00 16° W visible
